Regional Weather Roundup
Issued by NWS

Home | Current Version | Previous Version | Graphics & Text | Print | Product List | Glossary On
Versions: 1 2 3 4 5 6 7 8 9 10 11 12 13 14 15 16 17 18 19 20 21 22 23 24 25 26 27 28 29 30 31 32 33 34 35 36 37 38 39 40 41 42 43 44 45 46 47 48 49 50
000
ASUS43 KOAX 271910
RWRNE

WEATHER ROUNDUP FOR NEBRASKA
NATIONAL WEATHER SERVICE OMAHA NE
200 PM CDT THU AUG 27 2015

NOTES: SATELLITE DATA IS BEING USED TO AUGMENT CLOUD COVER ABOVE
       12000 FEET.
       "FAIR" INDICATES FEW OR NO CLOUDS BELOW 12,000 FEET WITH NO
       SIGNIFICANT WEATHER AND/OR OBSTRUCTIONS TO VISIBILITY.

  * THESE STATIONS DO NOT REPORT WEATHER SUCH AS RAIN...SNOW OR FOG.

NEZ001>004-019>022-054>056-272000-
NEBRASKA PANHANDLE

CITY           SKY/WX    TMP DP  RH WIND       PRES   REMARKS
SCOTTSBLUFF    MOSUNNY   84  55  36 N20       30.03S
ALLIANCE       MOSUNNY   83  59  44 N17G25    30.01S
CHADRON        PTSUNNY   82  57  42 N15       30.02F
KIMBALL        PTSUNNY   80  50  34 N22       30.06F
SIDNEY         SUNNY     86  60  41 N23G32    30.02F
$$

NEZ057>060-069>072-079>082-272000-
SOUTHWEST NEBRASKA

CITY           SKY/WX    TMP DP  RH WIND       PRES   REMARKS
NORTH PLATTE   PTSUNNY   84  64  50 E7        29.88F
IMPERIAL       SUNNY     89  60  37 N16       29.91F
LEXINGTON      CLOUDY    79  70  74 SE13      29.88F
MCCOOK         MOSUNNY   92  53  26 SW14      29.85F
OGALLALA       SUNNY     89  52  28 N10G21    29.91F
$$

NEZ005>010-023>029-035>040-094-272000-
NORTH CENTRAL NEBRASKA

CITY           SKY/WX    TMP DP  RH WIND       PRES   REMARKS
AINSWORTH      MOSUNNY   80  67  65 N7        29.94F
BROKEN BOW     CLOUDY    80  69  69 SE13G23   29.89F
O`NEILL        PTSUNNY   79  69  72 E14       29.92F
ORD            CLOUDY    80  68  66 SE14      29.88F
THEDFORD       CLOUDY    81  66  59 N6        29.92F
$$

NEZ041-046>049-061>064-073>077-083>087-272000-
SOUTH CENTRAL NEBRASKA

CITY           SKY/WX    TMP DP  RH WIND       PRES   REMARKS
GRAND ISLAND   CLOUDY    83  69  62 SE16G24   29.91F
AURORA         CLOUDY    81  70  69 SE20      29.92S
HASTINGS       CLOUDY    79  69  71 SE20      29.91F
HEBRON         CLOUDY    82  66  58 SE18G26   29.93F
HOLDREGE       CLOUDY    85  62  47 SE12      29.89F
KEARNEY *      CLOUDY    81  70  69 SE13      29.90S
YORK           CLOUDY    81  70  69 SE18G24   29.92F
$$

NEZ011>018-030>034-042>045-272000-
NORTHEAST NEBRASKA

CITY           SKY/WX    TMP DP  RH WIND       PRES   REMARKS
NORFOLK        CLOUDY    79  67  66 SE24G32   29.91F
ALBION         PTSUNNY   78  67  67 SE16      29.93R
BLAIR          MOSUNNY   76  64  65 S15       29.98F
COLUMBUS *     PTSUNNY  N/A N/A N/A SE14G20   29.91F
FREMONT        MOSUNNY   78  65  65 SE22G28   29.96F
TEKAMAH        MOSUNNY   78  65  63 SE20G30   29.98F
WAYNE          PTSUNNY   78  66  66 SE16G23   29.95F
$$

NEZ050>053-065>068-078-088>093-272000-
SOUTHEAST NEBRASKA

CITY           SKY/WX    TMP DP  RH WIND       PRES   REMARKS
LINCOLN        PTSUNNY   83  68  60 SE24G31   29.96F
OMAHA EPPLEY   PTSUNNY   80  64  58 S26G35    29.98F
BEATRICE       PTSUNNY   83  69  62 SE17G25   29.96F
FALLS CITY     PTSUNNY   79  65  62 SE18G26   30.03F
NEBRASKA CITY  MOSUNNY   77  60  56 S24       30.01F
PLATTSMOUTH    PTSUNNY   76  63  65 SE20G30   30.00F
$$

NEZ044-045-051>053-067-272000-
OMAHA AREA

CITY           SKY/WX    TMP DP  RH WIND       PRES   REMARKS
OMAHA EPPLEY   PTSUNNY   80  64  58 S26G35    29.98F
BLAIR          MOSUNNY   76  64  65 S15       29.98F
FREMONT        MOSUNNY   78  65  65 SE22G28   29.96F
MILLARD        PTSUNNY   77  66  68 SE18G25   29.98F
OFFUTT AFB     PTSUNNY   79  66  63 SE18G30   29.98F
PLATTSMOUTH    PTSUNNY   76  63  65 SE20G30   30.00F
WAHOO          FAIR      78  67  70 SE21G29   29.96F
$$




USA.gov is the U.S. government's official web portal to all federal, state and local government web resources and services.